, AK

(GMT )
Northway

Weather History for PAOR - March, 2014

Change the Weather History Date:

Monday, March 24, 2014

  Actual Average Record
Temperature  
Mean Temperature 6 °F -  
Max Temperature 30 °F 29 °F 46 °F (1965)
Min Temperature -16 °F -5 °F -38 °F (1967)
Degree Days  
Heating Degree Days 59    
Moisture  
Dew Point -6 °F    
Average Humidity 59    
Maximum Humidity 83    
Minimum Humidity 29    
Precipitation  
Precipitation 0.00 in - - ()
Snow  
Snow 0.00 in - - ()
Snow Depth 13.00 in    
Sea Level Pressure  
Sea Level Pressure 30.58 in    
Wind  
Wind Speed 1 mph (East)    
Max Wind Speed 7 mph    
Max Gust Speed -    
Visibility 10 miles    
Events      
Averages and records for this station are not official NWS values.
T = Trace of Precipitation, MM = Missing Value Source: NWS Daily Summary

Daily Weather History Graph

Daily Weather History Graph

Search for Another Location

Airport or City:

Trip Planner

Search our weather history database for the weather conditions in past years. The results will help you decide how hot, cold, wet, or windy it might be!

Date:

Astronomy

Mar. 24, 2014 Rise Set
Actual Time 7:14 AM AKDT 7:54 PM AKDT
Civil Twilight 6:28 AM AKDT 8:41 PM AKDT
Nautical Twilight 5:31 AM AKDT 9:38 PM AKDT
Astronomical Twilight 4:25 AM AKDT 10:45 PM AKDT
Moon 4:41 AM AKDT (3/24) 11:41 AM AKDT (3/24)
Length of Visible Light 14h 13m
Length of Day
12h 40m
Last Quarter, 41% of the Moon is Illuminated
Mar 24
Last Quarter
Mar 30
New
Apr 7
First Quarter
Apr 14
Full
Apr 21
Last Quarter

Hourly Weather History & Observations

Time (AKDT) Temp. Windchill Dew Point Humidity Pressure Visibility Wind Dir Wind Speed Gust Speed Precip Events Conditions
12:53 AM -5.1 °F - -9.9 °F 80% 30.68 in 10.0 mi Calm Calm - N/A   Clear
1:53 AM -7.1 °F - -11.0 °F 83% 30.67 in 10.0 mi Calm Calm - N/A   Clear
2:53 AM -9.0 °F - -13.0 °F 83% 30.66 in 10.0 mi Calm Calm - N/A   Clear
3:53 AM -9.9 °F - -15.0 °F 78% 30.66 in 10.0 mi Calm Calm - N/A   Clear
4:53 AM -11.9 °F - -18.0 °F 74% 30.66 in 10.0 mi Calm Calm - N/A   Clear
5:53 AM -13.0 °F - -18.9 °F 75% 30.65 in 10.0 mi Calm Calm - N/A   Clear
6:53 AM -15.0 °F - -20.0 °F 78% 30.67 in 10.0 mi Calm Calm - N/A   Clear
7:53 AM -16.1 °F - -20.9 °F 79% 30.68 in 10.0 mi Calm Calm - N/A   Clear
8:53 AM -6.0 °F - -11.0 °F 79% 30.68 in 10.0 mi Calm Calm - N/A   Partly Cloudy
9:53 AM 3.9 °F - -2.9 °F 73% 30.66 in 10.0 mi Calm Calm - N/A   Partly Cloudy
10:53 AM 10.0 °F - -2.0 °F 58% 30.65 in 10.0 mi Calm Calm - N/A   Partly Cloudy
11:53 AM 17.1 °F - -0.0 °F 47% 30.63 in 10.0 mi Calm Calm - N/A   Partly Cloudy
12:53 PM 21.0 °F 16.2 °F -0.0 °F 40% 30.62 in 10.0 mi ENE 3.5 mph - N/A   Partly Cloudy
1:53 PM 24.1 °F 19.7 °F -0.0 °F 35% 30.58 in 10.0 mi SE 3.5 mph - N/A   Partly Cloudy
2:53 PM 26.1 °F 20.5 °F 1.0 °F 34% 30.56 in 10.0 mi East 4.6 mph - N/A   Clear
3:53 PM 27.0 °F - -0.0 °F 31% 30.53 in 10.0 mi Calm Calm - N/A   Clear
4:53 PM 28.0 °F 20.8 °F -0.0 °F 30% 30.51 in 10.0 mi Variable 6.9 mph - N/A   Clear
5:53 PM 28.0 °F 24.2 °F -0.9 °F 29% 30.49 in 10.0 mi East 3.5 mph - N/A   Clear
6:53 PM 27.0 °F 19.5 °F -0.0 °F 31% 30.47 in 10.0 mi East 6.9 mph - N/A   Clear
7:53 PM 21.9 °F 17.2 °F -0.0 °F 38% 30.47 in 10.0 mi East 3.5 mph - N/A   Clear
8:53 PM 12.0 °F 5.9 °F 1.0 °F 61% 30.46 in 10.0 mi ENE 3.5 mph - N/A   Clear
9:53 PM 7.0 °F 0.1 °F -0.9 °F 70% 30.44 in 10.0 mi East 3.5 mph - N/A   Clear
10:53 PM 3.0 °F -4.4 °F -6.0 °F 66% 30.43 in 10.0 mi East 3.5 mph - N/A   Clear
11:53 PM -0.9 °F -8.9 °F -7.1 °F 75% 30.41 in 10.0 mi SW 3.5 mph - N/A   Clear